D1965 Weather Reports


Display with metric or nautical units.
time (UTC)temp
F
wind
direction
speed
MPH
gust
MPH
rain 1hr
in
rain 24hr
in
rain mn
in
humidity
%
barometer
mb
20260831225504 53 233 2.0 5.0 0.00 0.00 0.00 87 1018.4
20260831225004 53 229 1.0 5.0 0.00 0.00 0.00 87 1018.5
20260831224503 53 227 0.0 4.0 0.00 0.00 0.00 87 1018.5
20260831224005 53 0 0.0 0.0 0.00 0.00 0.00 87 1018.5
20260831222004 53 183 0.0 3.0 0.00 0.00 0.00 85 1018.3
20260831221504 54 187 1.0 3.0 0.00 0.00 0.00 85 1018.4
20260831221004 54 188 1.0 3.0 0.00 0.00 0.00 85 1018.4
20260831220504 54 189 1.0 3.0 0.00 0.00 0.00 85 1018.4
20260831220005 54 182 1.0 3.0 0.00 0.00 0.00 85 1018.4
20260831215506 54 190 1.0 3.0 0.00 0.00 0.00 85 1018.4
20260831214506 54 169 0.0 2.0 0.00 0.00 0.00 84 1018.3
20260831214006 54 0 0.0 0.0 0.00 0.00 0.00 84 1018.2
20260831213505 54 0 0.0 0.0 0.00 0.00 0.00 84 1018.2
20260831213007 55 0 0.0 0.0 0.00 0.00 0.00 83 1018.3
20260831212506 55 0 0.0 0.0 0.00 0.00 0.00 83 1018.1
20260831212006 55 0 0.0 0.0 0.00 0.00 0.00 83 1018.2
20260831211505 55 0 0.0 0.0 0.00 0.00 0.00 83 1018.2
20260831211006 55 0 0.0 0.0 0.00 0.00 0.00 82 1018.1
20260831210505 55 0 0.0 0.0 0.00 0.00 0.00 82 1018.1
20260831210006 56 0 0.0 0.0 0.00 0.00 0.00 82 1018.1
20260831205006 56 0 0.0 0.0 0.00 0.00 0.00 81 1018.1
20260831204506 56 0 0.0 0.0 0.00 0.00 0.00 80 1018.0
20260831203505 57 0 0.0 0.0 0.00 0.00 0.00 79 1018.0
20260831203008 57 0 0.0 0.0 0.00 0.00 0.00 79 1018.0
20260831201505 58 235 0.0 3.0 0.00 0.00 0.00 78 1018.0
20260831201006 58 235 0.0 3.0 0.00 0.00 0.00 78 1017.9
20260831200505 58 239 0.0 2.0 0.00 0.00 0.00 77 1017.9
20260831200007 58 255 0.0 2.0 0.00 0.00 0.00 77 1017.9
20260831195505 58 259 1.0 3.0 0.00 0.00 0.00 77 1018.0
20260831195008 58 246 1.0 3.0 0.00 0.00 0.00 77 1017.9
20260831194505 58 218 1.0 3.0 0.00 0.00 0.00 77 1017.8
20260831194006 58 205 1.0 3.0 0.00 0.00 0.00 76 1017.9
20260831193506 58 204 1.0 4.0 0.00 0.00 0.00 76 1017.8
20260831192505 59 0 0.0 0.0 0.00 0.00 0.00 75 1017.8
20260831191505 59 0 0.0 0.0 0.00 0.00 0.00 75 1017.8
20260831191006 59 212 0.0 2.0 0.00 0.00 0.00 75 1017.8
20260831190505 59 213 0.0 2.0 0.00 0.00 0.00 75 1017.7
20260831185505 58 210 1.0 3.0 0.00 0.00 0.00 74 1017.6
20260831185007 58 213 1.0 5.0 0.00 0.00 0.00 74 1017.8
20260831184006 58 251 2.0 5.0 0.00 0.00 0.00 73 1017.8
20260831183505 58 253 4.0 14.0 0.00 0.00 0.00 72 1017.8
20260831183007 59 263 5.0 14.0 0.00 0.00 0.00 74 1017.8
20260831182505 59 267 6.0 15.0 0.00 0.00 0.00 74 1017.8
20260831182007 60 266 5.0 15.0 0.00 0.00 0.00 72 1017.9
20260831181006 61 273 5.0 10.0 0.00 0.00 0.00 70 1017.8
20260831180506 62 277 3.0 8.0 0.00 0.00 0.00 68 1017.8
20260831175505 63 266 3.0 6.0 0.00 0.00 0.00 65 1017.5
20260831175006 64 264 3.0 9.0 0.00 0.00 0.00 64 1017.5
20260831174505 64 268 4.0 9.0 0.00 0.00 0.00 61 1017.5
20260831174006 65 270 3.0 9.0 0.00 0.00 0.00 61 1017.3
20260831173007 65 267 4.0 9.0 0.00 0.00 0.00 62 1017.3
20260831172505 65 270 5.0 10.0 0.00 0.00 0.00 62 1017.4
20260831172006 65 270 5.0 10.0 0.00 0.00 0.00 60 1017.2
20260831171505 66 270 4.0 10.0 0.00 0.00 0.00 60 1017.3
20260831170505 66 265 4.0 10.0 0.00 0.00 0.00 62 1017.2
20260831170006 66 268 4.0 10.0 0.00 0.00 0.00 60 1017.2
20260831165505 66 271 4.0 9.0 0.00 0.00 0.00 62 1017.2
20260831165006 66 267 4.0 9.0 0.00 0.00 0.00 61 1017.2
20260831164505 66 265 4.0 10.0 0.00 0.00 0.00 62 1017.2
20260831163006 65 268 5.0 12.0 0.00 0.00 0.00 62 1017.0
20260831162505 64 265 5.0 10.0 0.00 0.00 0.00 66 1017.0
20260831161505 64 271 4.0 11.0 0.00 0.00 0.00 66 1017.0
20260831161005 64 273 3.0 8.0 0.00 0.00 0.00 66 1016.9
20260831160505 64 269 3.0 8.0 0.00 0.00 0.00 64 1016.9
20260831160006 64 271 3.0 9.0 0.00 0.00 0.00 66 1016.9
20260831155506 64 272 5.0 10.0 0.00 0.00 0.00 67 1016.8
20260831155007 65 270 5.0 10.0 0.00 0.00 0.00 64 1016.8
20260831154505 66 270 4.0 10.0 0.00 0.00 0.00 63 1016.8
20260831154007 65 271 3.0 9.0 0.00 0.00 0.00 67 1016.7
20260831152505 66 275 3.0 11.0 0.00 0.00 0.00 66 1016.6
20260831152007 65 275 3.0 10.0 0.00 0.00 0.00 67 1016.7
20260831151006 65 264 4.0 11.0 0.00 0.00 0.00 66 1016.8
20260831150505 66 265 4.0 11.0 0.00 0.00 0.00 63 1016.7
20260831150007 66 273 3.0 10.0 0.00 0.00 0.00 65 1016.7
20260831145505 65 277 2.0 7.0 0.00 0.00 0.00 63 1016.7
20260831145006 64 271 3.0 8.0 0.00 0.00 0.00 64 1016.7
20260831144505 64 270 3.0 8.0 0.00 0.00 0.00 64 1016.7
20260831144006 64 271 3.0 8.0 0.00 0.00 0.00 64 1016.6
20260831143504 64 273 3.0 8.0 0.00 0.00 0.00 64 1016.6
20260831143007 64 274 3.0 7.0 0.00 0.00 0.00 65 1016.4
20260831142505 64 273 2.0 6.0 0.00 0.00 0.00 67 1016.5
20260831142006 64 272 2.0 6.0 0.00 0.00 0.00 64 1016.3
20260831141007 64 270 3.0 9.0 0.00 0.00 0.00 65 1016.2
20260831140505 64 266 2.0 9.0 0.00 0.00 0.00 66 1016.2
20260831140006 64 270 2.0 5.0 0.00 0.00 0.00 63 1016.2
20260831135505 64 277 2.0 5.0 0.00 0.00 0.00 64 1016.1
20260831135005 64 283 3.0 8.0 0.00 0.00 0.00 67 1016.2
20260831133006 64 270 3.0 9.0 0.00 0.00 0.00 64 1016.1
20260831132505 64 274 2.0 9.0 0.00 0.00 0.00 63 1015.9
20260831132005 65 275 3.0 7.0 0.00 0.00 0.00 65 1016.0
20260831131505 65 271 3.0 8.0 0.00 0.00 0.00 63 1016.0
20260831131006 65 277 3.0 8.0 0.00 0.00 0.00 62 1016.0
20260831130505 65 283 3.0 8.0 0.00 0.00 0.00 65 1016.0
20260831130006 65 275 3.0 8.0 0.00 0.00 0.00 62 1015.9
20260831125505 65 270 3.0 8.0 0.00 0.00 0.00 62 1015.8
20260831125005 65 270 2.0 8.0 0.00 0.00 0.00 64 1015.8
20260831124505 64 279 2.0 6.0 0.00 0.00 0.00 63 1015.8
20260831124006 64 277 2.0 8.0 0.00 0.00 0.00 63 1015.8
20260831123504 64 266 2.0 8.0 0.00 0.00 0.00 62 1015.7
20260831123006 64 263 3.0 10.0 0.00 0.00 0.00 63 1015.7
20260831122505 64 268 4.0 10.0 0.00 0.00 0.00 60 1015.6
20260831122005 64 270 3.0 8.0 0.00 0.00 0.00 62 1015.6
20260831121504 64 271 3.0 9.0 0.00 0.00 0.00 61 1015.6
20260831120505 63 281 2.0 8.0 0.00 0.00 0.00 62 1015.6
20260831115504 64 270 4.0 14.0 0.00 0.00 0.00 62 1015.6
20260831115006 64 271 4.0 14.0 0.00 0.00 0.00 59 1015.6
20260831114005 64 270 5.0 12.0 0.00 0.00 0.00 59 1015.4
20260831113006 63 276 4.0 10.0 0.00 0.00 0.00 64 1015.2
20260831112505 63 274 4.0 10.0 0.00 0.00 0.00 62 1015.2
20260831112005 63 276 4.0 10.0 0.00 0.00 0.00 62 1015.2
20260831111505 63 275 4.0 11.0 0.00 0.00 0.00 64 1015.2
20260831110005 63 270 4.0 12.0 0.00 0.00 0.00 64 1015.0
20260831105005 62 273 3.0 10.0 0.00 0.00 0.00 69 1014.9
20260831104005 62 282 3.0 9.0 0.00 0.00 0.00 73 1014.9
20260831103505 62 277 3.0 9.0 0.00 0.00 0.00 71 1014.8
20260831103006 61 279 4.0 9.0 0.00 0.00 0.00 71 1014.8
20260831102505 61 283 3.0 9.0 0.00 0.00 0.00 71 1014.7
20260831102005 61 280 3.0 10.0 0.00 0.00 0.00 70 1014.7
20260831101504 62 278 3.0 10.0 0.00 0.00 0.00 70 1014.7
20260831101005 62 278 3.0 9.0 0.00 0.00 0.00 71 1014.8
20260831100505 62 277 3.0 8.0 0.00 0.00 0.00 74 1014.7
20260831100005 61 282 3.0 7.0 0.00 0.00 0.00 74 1014.7
20260831095006 61 278 3.0 8.0 0.00 0.00 0.00 73 1014.6
20260831094504 61 280 3.0 8.0 0.00 0.00 0.00 75 1014.4
20260831094006 60 285 3.0 7.0 0.00 0.00 0.00 75 1014.3
20260831093504 60 283 2.0 5.0 0.00 0.00 0.00 73 1014.3
20260831093005 60 278 3.0 11.0 0.00 0.00 0.00 73 1014.3
20260831092005 60 280 3.0 11.0 0.00 0.00 0.00 76 1014.2
20260831091504 59 277 3.0 11.0 0.00 0.00 0.00 76 1014.0
20260831091006 60 272 4.0 9.0 0.00 0.00 0.00 76 1014.0
20260831090504 60 277 3.0 10.0 0.00 0.00 0.00 76 1013.8
20260831090010 60 280 3.0 10.0 0.00 0.00 0.00 76 1013.7
20260831085504 60 284 3.0 9.0 0.00 0.00 0.00 76 1013.7
20260831085005 60 278 3.0 10.0 0.00 0.00 0.00 75 1013.6
20260831084505 60 271 3.0 10.0 0.00 0.00 0.00 76 1013.5
20260831084006 60 273 3.0 8.0 0.00 0.00 0.00 78 1013.3
20260831083504 59 271 2.0 8.0 0.00 0.00 0.00 81 1013.2
20260831083006 59 275 3.0 8.0 0.00 0.00 0.00 82 1013.4
20260831082505 58 277 3.0 9.0 0.00 0.00 0.00 81 1013.3
20260831081504 58 274 3.0 11.0 0.00 0.00 0.00 82 1013.1
20260831081006 58 274 2.0 8.0 0.00 0.00 0.00 83 1013.1
20260831080505 57 272 2.0 8.0 0.00 0.00 0.00 84 1013.0
20260831080005 57 271 3.0 8.0 0.00 0.00 0.00 85 1012.9
20260831075505 56 271 2.0 8.0 0.00 0.00 0.00 87 1012.7
20260831075005 56 270 2.0 7.0 0.00 0.00 0.00 88 1012.7
20260831074505 56 269 1.0 7.0 0.00 0.00 0.00 89 1012.7
20260831074006 55 265 1.0 6.0 0.00 0.00 0.00 89 1012.7
20260831073504 55 266 0.0 4.0 0.00 0.00 0.00 89 1012.7
20260831073006 55 0 0.0 0.0 0.00 0.00 0.00 89 1012.7
20260831072005 54 0 0.0 0.0 0.00 0.00 0.00 89 1012.5
20260831071504 54 270 0.0 2.0 0.00 0.00 0.00 88 1012.4
20260831071005 54 268 1.0 4.0 0.00 0.00 0.00 88 1012.4
20260831070504 54 266 0.0 4.0 0.00 0.00 0.00 88 1012.2
20260831065505 54 277 2.0 7.0 0.00 0.00 0.00 88 1012.1
20260831065005 54 279 3.0 10.0 0.00 0.00 0.00 88 1012.1
20260831064504 54 276 3.0 10.0 0.00 0.00 0.00 89 1012.0
20260831064005 55 274 2.0 4.0 0.00 0.00 0.00 91 1011.9
20260831063504 55 274 2.0 4.0 0.00 0.00 0.00 91 1011.8
20260831063005 55 270 2.0 10.0 0.00 0.00 0.00 91 1011.8
20260831062504 54 264 2.0 10.0 0.00 0.00 0.00 91 1011.7
20260831062006 54 257 1.0 5.0 0.00 0.00 0.00 91 1011.6
20260831061504 54 0 0.0 0.0 0.00 0.00 0.00 90 1011.6
20260831061005 54 304 0.0 2.0 0.00 0.00 0.00 90 1011.5
20260831060006 54 304 1.0 3.0 0.00 0.00 0.00 90 1011.2
20260831055504 54 305 1.0 3.0 0.00 0.00 0.00 89 1011.0
20260831055005 54 304 2.0 4.0 0.00 0.00 0.00 89 1010.9
20260831054505 54 300 2.0 4.0 0.00 0.00 0.00 89 1010.8
20260831054006 55 297 2.0 4.0 0.00 0.00 0.00 89 1010.7
20260831053504 55 283 2.0 6.0 0.00 0.00 0.00 90 1010.6
20260831053006 55 278 2.0 6.0 0.00 0.00 0.00 90 1010.6
20260831052504 55 285 2.0 5.0 0.00 0.00 0.00 90 1010.5
20260831052005 55 285 2.0 6.0 0.00 0.00 0.00 90 1010.3
20260831051005 55 285 3.0 9.0 0.00 0.00 0.00 90 1010.0
20260831045504 56 285 2.0 8.0 0.00 0.00 0.00 90 1009.8
20260831045005 56 278 2.0 8.0 0.00 0.00 0.00 91 1009.8
20260831044504 56 268 2.0 8.0 0.00 0.00 0.00 91 1009.8
20260831044005 56 273 2.0 6.0 0.00 0.00 0.00 91 1009.6
20260831043504 56 277 2.0 4.0 0.00 0.00 0.00 91 1009.7
20260831043005 56 275 2.0 3.0 0.00 0.00 0.00 91 1009.6
20260831042005 56 277 2.0 5.0 0.00 0.00 0.00 91 1009.3
20260831040504 56 269 2.0 7.0 0.00 0.00 0.00 91 1009.2
20260831034005 56 270 1.0 5.0 0.00 0.00 0.00 92 1008.8
20260831032005 56 260 0.0 2.0 0.00 0.00 0.00 92 1008.5
20260831031504 56 258 0.0 4.0 0.00 0.00 0.00 92 1008.5
20260831031004 56 275 1.0 4.0 0.00 0.00 0.00 92 1008.4
20260831030504 56 290 0.0 3.0 0.00 0.00 0.00 92 1008.5
20260831030005 56 289 0.0 2.0 0.00 0.00 0.00 92 1008.3
20260831025006 57 285 1.0 4.0 0.00 0.00 0.00 92 1008.1
20260831024504 57 291 1.0 5.0 0.00 0.00 0.00 92 1008.0
20260831024005 57 286 1.0 5.0 0.00 0.00 0.00 92 1007.8
20260831023504 57 278 2.0 7.0 0.00 0.00 0.00 92 1007.9
20260831023005 57 288 2.0 7.0 0.00 0.00 0.00 92 1007.7
20260831022005 57 292 2.0 4.0 0.00 0.00 0.00 93 1007.7
20260831021504 57 288 2.0 4.0 0.00 0.00 0.00 93 1007.4
20260831021006 57 287 2.0 4.0 0.00 0.00 0.00 93 1007.3
20260831020006 57 287 2.0 6.0 0.00 0.00 0.00 93 1007.3
20260831015005 57 289 2.0 5.0 0.00 0.00 0.00 93 1007.1
20260831014005 57 284 2.0 5.0 0.00 0.00 0.00 93 1006.9
20260831013005 57 275 2.0 4.0 0.00 0.00 0.00 94 1006.8
20260831012504 57 272 2.0 4.0 0.00 0.00 0.00 94 1006.8
20260831011504 57 273 2.0 6.0 0.00 0.00 0.00 93 1006.5
20260831011005 57 278 2.0 6.0 0.00 0.00 0.00 94 1006.5
20260831010504 57 275 2.0 6.0 0.00 0.00 0.00 93 1006.5
20260831010005 57 278 2.0 6.0 0.00 0.00 0.00 93 1006.5
20260831005504 57 280 2.0 5.0 0.00 0.00 0.00 93 1006.4
20260831005005 57 279 3.0 6.0 0.00 0.00 0.00 93 1006.3
20260831004503 57 279 3.0 6.0 0.00 0.00 0.00 93 1006.2
20260831004004 57 277 3.0 7.0 0.00 0.00 0.00 94 1006.1
20260831003503 57 283 2.0 7.0 0.00 0.00 0.00 94 1006.1
20260831002504 57 283 2.0 10.0 0.00 0.00 0.00 94 1006.0
20260831002006 57 280 2.0 6.0 0.00 0.00 0.00 93 1006.0
20260831001504 57 274 2.0 7.0 0.00 0.00 0.00 93 1005.8
20260831001005 57 272 2.0 7.0 0.00 0.00 0.00 93 1005.7
20260831000504 57 269 2.0 7.0 0.00 0.00 0.00 93 1005.7
20260831000005 57 267 2.0 4.0 0.00 0.00 0.00 93 1005.5
20260830235504 57 270 2.0 6.0 0.00 0.00 0.00 93 1005.5
20260830235004 57 271 2.0 6.0 0.00 0.00 0.00 93 1005.4
20260830234504 57 270 2.0 4.0 0.00 0.00 0.00 93 1005.4
20260830234004 57 272 2.0 4.0 0.00 0.00 0.00 92 1005.3
20260830233504 57 273 2.0 4.0 0.00 0.00 0.00 92 1005.3
20260830233004 57 270 2.0 6.0 0.00 0.00 0.00 92 1005.1
20260830232503 57 267 2.0 7.0 0.00 0.00 0.00 92 1005.0
20260830232006 57 262 2.0 7.0 0.00 0.00 0.00 92 1005.0
20260830231504 57 259 1.0 4.0 0.00 0.00 0.00 92 1004.9
20260830230503 57 244 2.0 5.0 0.00 0.00 0.00 93 1004.9
20260830230004 57 260 2.0 5.0 0.00 0.00 0.00 93 1004.7